Location: ???????
(55.4362°N, 38.1183°E)
Time: 13:40:26
(UTC+00:00)

AO-27 - Visible Passes

Search period start: 09 December 2021 00:00
Search period end: 19 December 2021 00:00
Orbit: 786 x 796 km, 98.9° (Epoch: 08 December)

Date Brightness Start Highest point End Pass type
(mag) Time Alt. Az. Time Alt. Az. Time Alt. Az.
09 Dec 10.1 04:02:59 10° NE 04:07:19 25° E 04:11:36 10° SSE visible
09 Dec 8.9 13:50:50 10° E 13:54:31 20° NE 13:58:12 10° N visible
09 Dec 7.5 15:28:02 10° SSE 15:33:16 79° ENE 15:38:33 10° NNW visible
09 Dec 10.0 17:09:22 10° SW 17:13:21 22° W 17:17:22 10° NW visible
10 Dec 10.6 03:34:35 10° NE 03:37:44 16° E 03:40:52 10° ESE visible
10 Dec 7.8 14:59:09 10° SE 15:04:11 50° ENE 15:09:16 10° N visible
10 Dec 9.2 16:39:07 10° SSW 16:43:52 34° W 16:48:39 10° NNW visible
11 Dec 8.8 04:43:43 10° NNE 04:48:49 49° E 04:53:51 10° S visible
11 Dec 8.3 14:30:34 10° ESE 14:35:12 33° ENE 14:39:52 10° N visible
11 Dec 8.3 16:09:21 10° S 16:14:30 55° WSW 16:19:40 10° NNW visible
11 Dec 10.7 17:54:00 10° W 17:55:10 11° W 17:56:20 10° WNW visible
12 Dec 9.7 04:14:47 10° NNE 04:19:25 30° E 04:23:59 10° SSE visible
12 Dec 8.8 14:02:20 10° ESE 14:06:20 23° NE 14:10:21 10° N visible
12 Dec 7.6 15:40:00 10° SSE 15:45:15 87° WSW 15:50:32 10° NNW visible
12 Dec 10.2 17:21:58 10° SW 17:25:29 18° W 17:29:02 10° NW visible
13 Dec 10.5 03:46:10 10° NE 03:49:53 19° E 03:53:33 10° SE visible
13 Dec 7.6 15:10:58 10° SE 15:16:07 60° ENE 15:21:17 10° NNW visible
13 Dec 9.5 16:51:27 10° SSW 16:55:57 29° W 17:00:29 10° NNW visible
14 Dec 10.8 03:18:29 10° ENE 03:20:13 11° E 03:21:56 10° E visible
14 Dec 8.4 04:55:38 10° NNE 05:00:50 59° ESE 05:05:59 10° S visible
14 Dec 8.1 14:42:16 10° SE 14:47:05 39° ENE 14:51:56 10° N visible
14 Dec 8.7 16:21:30 10° S 16:26:32 46° W 16:31:35 10° NNW visible
15 Dec 9.4 04:26:38 10° NNE 04:31:29 36° E 04:36:16 10° SSE visible
15 Dec 8.6 14:13:53 10° ESE 14:18:10 26° NE 14:22:28 10° N visible
15 Dec 7.8 15:51:59 10° S 15:57:14 74° WSW 16:02:30 10° NNW visible
15 Dec 10.4 17:34:44 10° WSW 17:37:38 15° W 17:40:34 10° NW visible
16 Dec 10.2 03:57:52 10° NE 04:02:00 23° E 04:06:06 10° SE visible
16 Dec 9.0 13:45:53 10° E 13:49:22 18° NE 13:52:51 10° N visible
16 Dec 7.6 15:22:50 10° SSE 15:28:03 72° ENE 15:33:18 10° NNW visible
16 Dec 9.8 17:03:51 10° SW 17:08:03 24° W 17:12:16 10° NW visible
17 Dec 10.6 03:29:38 10° NE 03:32:23 14° E 03:35:07 10° ESE visible
17 Dec 7.9 14:54:01 10° SE 14:58:59 46° ENE 15:03:59 10° N visible
17 Dec 9.0 16:33:43 10° SSW 16:38:34 38° W 16:43:28 10° NNW visible
18 Dec 9.0 04:38:31 10° NNE 04:43:32 44° E 04:48:29 10° S visible
18 Dec 8.4 14:25:30 10° ESE 14:30:02 30° ENE 14:34:34 10° N visible
18 Dec 8.1 16:04:03 10° S 16:09:14 61° WSW 16:14:28 10° NNW visible
18 Dec 10.6 17:47:49 10° WSW 17:49:49 12° W 17:51:49 10° WNW visible
